Flag for United Kingdom Weather past 2 weeks in London, England, United Kingdom

Now
64 °F

Broken clouds.


Feels Like: 64 °F
Forecast: 47 / 60 °F
Wind: 8 mph from West

Location: Northolt

Current Time: May 24, 2015 at 7:03:38 PM

Latest Report: May 24, 2015 at 5:50 PM


Visibility: N/A

Pressure: 30.07 "Hg

Humidity: 68%

Dew point: 54 °F

Location of LondonLocation

Historic Weather in London — Graph

°F

London temperature yesterday

Maximum temperature yesterday: 63 °F (at 11:50 AM)
Minimum temperature yesterday: 54 °F (at 5:50 AM)
Average temperature yesterday: 58 °F

Past Weeks' High & Low Weather Summary

 TemperatureHumidityPressure
High70 °F (May 11, 2:50 PM)100% (May 10, 4:50 AM)30.36 "Hg (May 10, 4:50 AM)
Low39 °F (May 20, 3:50 AM)28% (May 13, 2:50 PM)29.56 "Hg (May 18, 12:50 PM)
Average54 °F69%30.08 "Hg
* Reported May 9 5:50 PM — May 24 5:50 PM, London, Weather by CustomWeather, © 2015

Note: Actual official high and low records may vary slightly from our data, if they occured in-between our weather recording intervals... More about our weather records

Advertising

London weather history for previous 24 hours

 ConditionsComfort  
Time TempWeatherWind HumidityBarometerVisibility
5:50 PM
Sun, May 24
64 °FBroken clouds.8 mph68%30.07 "HgN/A
4:50 PM63 °FBroken clouds.9 mph73%30.07 "HgN/A
3:50 PM63 °FMostly cloudy.10 mph68%30.07 "HgN/A
2:50 PM64 °FLight rain. Partly sunny.10 mph68%30.07 "HgN/A
1:50 PM64 °FMostly cloudy.10 mph64%30.07 "HgN/A
12:50 PM66 °FPartly sunny.6 mph60%30.09 "HgN/A
11:50 AM64 °FBroken clouds.8 mph60%30.09 "HgN/A
10:50 AM63 °FPartly sunny.9 mph59%30.09 "HgN/A
9:50 AM63 °FPartly sunny.14 mph56%30.12 "HgN/A
8:50 AM59 °FSunny.10 mph63%30.12 "Hg10 mi
7:50 AM55 °FScattered clouds.10 mph72%30.12 "HgN/A
6:50 AM54 °FSunny.8 mph77%30.12 "Hg10 mi
5:50 AM54 °FPassing clouds.6 mph82%30.15 "HgN/A
4:50 AM54 °FPartly cloudy.6 mph77%30.15 "HgN/A
3:50 AM54 °FPassing clouds.5 mph72%30.15 "HgN/A
2:50 AM54 °FPassing clouds.5 mph67%30.18 "HgN/A
1:50 AM54 °FPartly cloudy.5 mph63%30.18 "HgN/A
12:50 AM54 °FPassing clouds.6 mph63%30.21 "HgN/A
11:50 PM
Sat, May 23
55 °FPartly cloudy.6 mph59%30.21 "HgN/A
10:50 PM55 °FPassing clouds.8 mph55%30.21 "HgN/A
9:50 PM55 °FSunny.7 mph59%30.24 "Hg10 mi
8:50 PM57 °FPartly sunny.8 mph55%30.21 "HgN/A
7:50 PM59 °FMore clouds than sun.8 mph51%30.21 "HgN/A
Weather by CustomWeather, © 2015

See weather overviewHow to use our weather pages